Location: Sternwarte_Laufen
(47.9344°N, 12.9346°E)
Time: 00:43:33
(UTC+02:00)

ISS - Pass Details

Date: 27 May 2017
Orbit: 402 x 408 km, 51.6° (Epoch: 27 May)

Event Time Altitude Azimuth Distance (km) Brightness Sun altitude
Rises 04:10:28 0° 283° (WNW) 2,328 -0.3 -9.3°
Reaches altitude 10° 04:13:19 10° 256° (WSW) 1,461 -1.5 -9.0°
Maximum altitude 04:15:02 14° 225° (SW) 1,262 -2.0 -8.8°
Drops below altitude 10° 04:16:44 10° 193° (SSW) 1,454 -1.5 -8.6°
Sets 04:19:34 0° 166° (SSE) 2,306 -0.3 -8.2°
